Regional Weather Roundup
Issued by NWS

Home | Current Version | Previous Version | Graphics & Text | Print | Product List | Glossary On
Versions: 1 2 3 4 5 6 7 8 9 10 11 12 13 14 15 16 17 18 19 20 21 22 23 24 25 26 27 28 29 30 31 32 33 34 35 36 37 38 39 40 41 42 43 44 45 46 47 48 49 50
000
ASUS43 KFSD 271410
RWRSD

WEATHER ROUNDUP FOR SOUTH DAKOTA
NATIONAL WEATHER SERVICE SIOUX FALLS SD
900 AM CDT MON APR 27 2015

NOTE: "FAIR" INDICATES FEW OR NO CLOUDS BELOW 12,000 FEET WITH NO
SIGNIFICANT WEATHER AND/OR OBSTRUCTIONS TO VISIBILITY.


SDZ001>005-009-010-012>017-271500-
NORTHWEST AND NORTH CENTRAL SOUTH DAKOTA

CITY           SKY/WX    TMP DP  RH WIND       PRES   REMARKS
BUFFALO          N/A     39  38  96 NW18      30.22R
FAITH            N/A     46  42  86 N13       30.24R
MOBRIDGE       PTSUNNY   48  41  76 NW7       30.21R
$$

SDZ012>016-024>037-041>051-057-063-072>074-271500-
SOUTHWEST AND SOUTH CENTRAL SOUTH DAKOTA

CITY           SKY/WX    TMP DP  RH WIND       PRES   REMARKS
RAPID CTY ARPT CLOUDY    42  39  89 N21       30.26R
PIERRE         MOSUNNY   48  37  65 CALM      30.22R
CUSTER         CLOUDY    40  37  89 CALM      30.25R
ELLSWORTH AFB  DRIZZLE   41  39  93 N20       30.26
PHILIP         CLOUDY    52  44  74 NW9       30.24R
PINE RIDGE     MOSUNNY   41  38  89 CALM      30.24R
SPEARFISH      MIX PCPN  37  37 100 NW8       30.31R
WINNER         FAIR      51  33  50 CALM      30.23R
$$

SDZ004>011-016>023-039-040-271500-
NORTHEAST SOUTH DAKOTA

CITY           SKY/WX    TMP DP  RH WIND       PRES   REMARKS
ABERDEEN       SUNNY     53  30  41 S6        30.24R
WATERTOWN      SUNNY     50  26  39 CALM      30.24R
BROOKINGS      SUNNY     52  25  35 S5        30.25R
SISSETON         N/A     55  32  41 CALM      30.23R
$$

SDZ017-020-022-023-036>040-048>070-271500-
SOUTHEAST SOUTH DAKOTA

CITY           SKY/WX    TMP DP  RH WIND       PRES   REMARKS
SIOUX FALLS    MOSUNNY   50  30  46 NE5       30.23S
HURON          SUNNY     49  28  44 CALM      30.24R
CHAMBERLAIN    SUNNY     50  35  57 CALM      30.23R
MITCHELL       SUNNY     48  35  60 CALM      30.23S
YANKTON        MOSUNNY   46  34  61 E3        30.22R
$$

ABBREVIATIONS USED IN REMARKS
   TC - TEMPERATURE IN CELSIUS
  WCI - WIND CHILL INDEX
   HX - HEAT INDEX
  VSB - VISIBILITY



USA.gov is the U.S. government's official web portal to all federal, state and local government web resources and services.